Location: Gleizolles
(44.4833°N, 6.7667°E)
Time: 04:05:36
(UTC+00:00)

N. Korean satellite - Pass Details

Date: 12 December 2021
Orbit: 447 x 491 km, 97.3° (Epoch: 23 January)

Event Time Altitude Azimuth Distance (km) Brightness Sun altitude
Rises 05:41:33 0° 358° (N) 2,460 9.9 -13.4°
Enters shadow 05:42:58 - 350° (N) 1,914 9.3 -13.2°
Exits shadow 05:48:09 15° 254° (WSW) 1,313 8.3 -12.3°
Drops below altitude 10° 05:49:04 10° 242° (WSW) 1,580 8.8 -12.2°
Sets 05:51:25 0° 225° (SW) 2,453 9.9 -11.8°
